This is the latest recevied weather packets stored in our database for station/object N0ZMJ-3. If no packets are shown the sender has not sent any weather packets the latest 10 day(s).
| Time | Temp. | Humidity | Pressure | Rain* | Wind** | Luminosity | Snow |
|---|---|---|---|---|---|---|---|
| 1777772423 | 17.22° C | 43% | 1007.1 hPa | 0 mm | - | - | - |
| 1777772055 | 17.78° C | 43% | 1007.1 hPa | 0 mm | - | - | - |
| 1777772002 | 17.78° C | 43% | 1007.1 hPa | 0 mm | - | - | - |
| 1777771587 | 17.78° C | 42% | 1007.2 hPa | 0 mm | - | - | - |
| 1777771454 | 17.78° C | 41% | 1007.2 hPa | 0 mm | - | - | - |
| 1777771163 | 18.33° C | 41% | 1007.2 hPa | 0 mm | - | - | - |
| 1777770854 | 18.33° C | 40% | 1007.1 hPa | 0 mm | - | - | - |
| 1777770742 | 18.33° C | 40% | 1007.1 hPa | 0 mm | - | - | - |
| 1777770323 | 18.33° C | 40% | 1007.3 hPa | 0 mm | - | - | - |
| 1777770255 | 18.89° C | 39% | 1007.4 hPa | 0 mm | - | - | - |
| 1777769905 | 18.89° C | 39% | 1007.3 hPa | 0 mm | - | - | - |
| 1777769655 | 18.89° C | 38% | 1007.4 hPa | 0 mm | - | - | - |
| 1777769482 | 18.89° C | 38% | 1007.4 hPa | 0 mm | - | - | - |
| 1777769055 | 19.44° C | 37% | 1007.7 hPa | 0 mm | - | - | - |
| 1777768644 | 19.44° C | 36% | 1007.8 hPa | 0 mm | - | - | - |
| 1777768455 | 20° C | 36% | 1007.9 hPa | 0 mm | - | - | - |
| 1777768223 | 20° C | 36% | 1007.9 hPa | 0 mm | - | - | - |
| 1777767855 | 20° C | 35% | 1008.1 hPa | 0 mm | - | - | - |
| 1777767803 | 20° C | 35% | 1008.1 hPa | 0 mm | - | - | - |
| 1777767385 | 19.44° C | 35% | 1008.2 hPa | 0 mm | - | - | - |
| 1777767255 | 19.44° C | 35% | 1008.4 hPa | 0 mm | - | - | - |
| 1777766964 | 19.44° C | 34% | 1008.6 hPa | 0 mm | - | - | - |
| 1777766656 | 19.44° C | 34% | 1008.7 hPa | 0 mm | - | - | - |
| 1777766543 | 19.44° C | 34% | 1008.7 hPa | 0 mm | - | - | - |
| 1777766124 | 19.44° C | 33% | 1008.7 hPa | 0 mm | - | - | - |
* Rain latest hour (hover to see other rain measurements)
** Current wind speed in m/s (hover to see current wind gust speed)